Find Starlink 37608

NORAD ID: 69037 Int'l Des: 2026-101 Owner: SPXS Country: US Constellation: starlink operational
LEOCIRCULARRETROGRADE

当前视图

正在加载3D地球...

About Starlink 37608

Starlink 37608 (NORAD 69037) is a starlink constellation satellite (v2 mini) launched May 6, 2026 by SPXS of US. It operates in LEO, CIRCULAR, RETROGRADE orbit with a mass of 575.00 kg.

关于 Starlink 37608

正在加载描述...

即将过境

Passes for default location (London). Set your location on the main map for personalized predictions.

高度历史

Loading altitude history...

两行轨道根数

1 69037U 26101N 26176.59254197 .00023780 00000-0 73629-3 0 9999
2 69037 97.2876 31.3637 0001644 97.8723 262.2707 15.33457353 7866
Epoch: Jun 25, 2026 • Age: 8 hours

当前状态

高度 476.5 km
速度 7.63 km/s
星下点 -27.40°S, 152.43°E
发射日期 May 6, 2026
运行时间 0.1 years
类型 internet

技术详情

分类 Payload
质量 575.00 kg
干质量 530.00 kg
总质量 575.00 kg
长度 0.30 m
直径 4.10 m
跨度 29.00 m
形状 Box + pan
制造商 SPXS
平台类型 Starlink V2MO
阶段状态 In Orbit
所有者/国家 SPXS/US

Most Searched